Regional Weather Roundup
Issued by NWS Little Rock, AR

Home | Current Version | Previous Version | Text Only | Print | Product List | Glossary On
Versions: 1 2 3 4 5 6 7 8 9 10 11 12 13 14 15 16 17 18 19 20 21 22 23 24 25 26 27
000
ASUS44 KLZK 161005
RWRLZK

WEATHER ROUNDUP FOR ARKANSAS
NATIONAL WEATHER SERVICE LITTLE ROCK AR
500 AM CDT WED APR 16 2014

NOTE: "FAIR" INDICATES FEW OR NO CLOUDS BELOW 12,000 FEET WITH NO
SIGNIFICANT WEATHER AND/OR OBSTRUCTIONS TO VISIBILITY.

ARZ001-003-010-029-161100-
NORTHWEST ARKANSAS

CITY           SKY/WX    TMP DP  RH WIND       PRES   REMARKS
FAYETTEVILLE   CLEAR     43  27  53 SE8       30.10F
FORT SMITH     CLEAR     42  32  67 E9        30.13S
HARRISON       CLEAR     37  29  72 SE12      30.12F
BENTONVILLE    CLEAR     39  27  60 S8        30.09S
ROGERS         CLEAR     41  28  60 SE10      30.09S
HIGHFILL       CLEAR     37  28  70 S8        30.07F
$$

ARZ004-005-016-161100-
NORTH CENTRAL ARKANSAS

CITY           SKY/WX    TMP DP  RH WIND       PRES   REMARKS
BATESVILLE     CLEAR     37  30  75 SE3       30.21R
FLIPPIN        CLEAR     37  25  60 E3        30.17S
MTN HOME       CLEAR     36  28  73 SE5       30.16S
$$

ARZ040-041-161100-
WEST CENTRAL ARKANSAS

CITY           SKY/WX    TMP DP  RH WIND       PRES   REMARKS
MENA           CLEAR     36  36 100 CALM      30.15S
MOUNT IDA      CLEAR     37  34  89 SE5       30.15R
$$

ARZ009-017-025-026-028-161100-
NORTHEAST ARKANSAS

CITY           SKY/WX    TMP DP  RH WIND       PRES   REMARKS
CORNING        FAIR      36  32  87 E7        30.24F
JONESBORO      CLEAR     33  30  88 NE3       30.23F
NEWPORT        CLEAR     37  31  79 SE6       30.24S
BLYTHEVILLE    CLEAR     36  29  75 E6        30.25F
$$

ARZ022-023-033-042-044-161100-
CENTRAL ARKANSAS

CITY           SKY/WX    TMP DP  RH WIND       PRES   REMARKS
LITTLE ROCK    CLEAR     40  34  79 CALM      30.22R
N LITTLE ROCK    N/A     40  35  82 SE7       30.22R
JACKSONVILLE   CLEAR     34  33  94 CALM      30.21S
SEARCY         CLEAR     33  33 100 CALM      30.23S
HOT SPRINGS    CLEAR     37  31  78 E6        30.20R
RUSSELLVILLE   CLEAR     40  33  76 CALM      30.18S
CLINTON        FAIR      32  32 100 CALM      30.22S
$$

ARZ036-161100-
EAST ARKANSAS

CITY           SKY/WX    TMP DP  RH WIND       PRES   REMARKS
WEST MEMPHIS   CLEAR     35  31  85 CALM      30.23S FOG
$$

ARZ050-053-066-070-073-161100-
SOUTHWEST ARKANSAS

CITY           SKY/WX    TMP DP  RH WIND       PRES   REMARKS
ARKADELPHIA    FAIR      39  37  92 CALM      30.22R
CAMDEN         CLEAR     34  32  93 MISG      30.21S
TEXARKANA      CLEAR     41  33  73 SE6       30.17F
EL DORADO      CLEAR     34  33  96 CALM      30.21R
DE QUEEN       CLEAR     37  34  89 NE5       30.16R
$$

ARZ056-057-069-161100-
SOUTHEAST ARKANSAS

CITY           SKY/WX    TMP DP  RH WIND       PRES   REMARKS
PINE BLUFF     CLEAR     37  33  85 SE3       30.22S
STUTTGART      CLEAR     39  30  70 E7        30.22S
MONTICELLO     CLEAR     36  32  85 E3        30.21S

$$





USA.gov is the U.S. government's official web portal to all federal, state and local government web resources and services.